Météo par heure à a/p Chisinau International Airport

Ce jour, 14 Avril, Mercredi

Heure Température Précipitation Vent Pression Humidité
00:00 +8°C° 0 mm 4 m/s 758 mmHg 74%
01:00 +7°C° 0 mm 4 m/s 758 mmHg 76%
02:00 +7°C° 0 mm 4 m/s 758 mmHg 77%
03:00 +7°C° 0 mm 3 m/s 758 mmHg 79%
04:00 +7°C° 0 mm 3 m/s 757 mmHg 82%
05:00 +7°C° 0 mm 2 m/s 757 mmHg 84%
06:00 +8°C° 0 mm 3 m/s 757 mmHg 81%
07:00 +8°C° 0 mm 3 m/s 757 mmHg 77%
08:00 +8°C° 0 mm 4 m/s 757 mmHg 73%
09:00 +11°C° 0 mm 4 m/s 757 mmHg 66%
10:00 +12°C° 0 mm 5 m/s 757 mmHg 59%
11:00 +13°C° 0 mm 5 m/s 756 mmHg 52%
12:00 +13°C° 0 mm 5 m/s 756 mmHg 53%
13:00 +13°C° 0 mm 5 m/s 756 mmHg 54%
14:00 +13°C° 0 mm 6 m/s 755 mmHg 55%
15:00 +12°C° 0.2 mm 5 m/s 755 mmHg 62%
16:00 +10°C° 0.2 mm 5 m/s 755 mmHg 70%
17:00 +9°C° 0.2 mm 5 m/s 755 mmHg 77%
18:00 +8°C° 0.5 mm 4 m/s 755 mmHg 80%
19:00 +8°C° 0.5 mm 4 m/s 755 mmHg 83%
20:00 +8°C° 0.5 mm 3 m/s 755 mmHg 86%
21:00 +8°C° 0.3 mm 3 m/s 755 mmHg 87%
22:00 +8°C° 0.3 mm 3 m/s 755 mmHg 89%
23:00 +8°C° 0.3 mm 3 m/s 754 mmHg 90%

Demain, 15 Avril, Jeudi

Heure Température Précipitation Vent Pression Humidité
00:00 +8°C° 0.6 mm 3 m/s 754 mmHg 91%
01:00 +8°C° 0.6 mm 3 m/s 754 mmHg 93%
02:00 +8°C° 0.6 mm 3 m/s 754 mmHg 94%
03:00 +7°C° 0.6 mm 4 m/s 754 mmHg 93%
04:00 +7°C° 0.6 mm 4 m/s 754 mmHg 93%
05:00 +6°C° 0.6 mm 5 m/s 754 mmHg 93%
06:00 +6°C° 0.4 mm 5 m/s 754 mmHg 92%
07:00 +4°C° 0.4 mm 6 m/s 755 mmHg 91%
08:00 +4°C° 0.4 mm 6 m/s 755 mmHg 91%
09:00 +4°C° 0.1 mm 6 m/s 755 mmHg 90%
10:00 +4°C° 0.1 mm 6 m/s 755 mmHg 90%
11:00 +4°C° 0.1 mm 6 m/s 756 mmHg 89%
12:00 +4°C° 0 mm 7 m/s 756 mmHg 89%
13:00 +4°C° 0 mm 7 m/s 756 mmHg 89%
14:00 +4°C° 0 mm 7 m/s 756 mmHg 88%
15:00 +3°C° 0 mm 6 m/s 756 mmHg 89%
16:00 +3°C° 0 mm 6 m/s 757 mmHg 89%
17:00 +3°C° 0 mm 6 m/s 757 mmHg 89%
18:00 +3°C° 0 mm 6 m/s 757 mmHg 89%
19:00 +3°C° 0 mm 5 m/s 757 mmHg 89%
20:00 +3°C° 0 mm 5 m/s 757 mmHg 90%
21:00 +3°C° 0 mm 5 m/s 757 mmHg 91%
22:00 +3°C° 0 mm 5 m/s 757 mmHg 92%
23:00 +3°C° 0 mm 5 m/s 757 mmHg 93%

Après-demain, 16 Avril, Vendredi

Heure Température Précipitation Vent Pression Humidité
00:00 +2°C° 0.2 mm 5 m/s 757 mmHg 93%
01:00 +2°C° 0.2 mm 5 m/s 757 mmHg 94%
02:00 +2°C° 0.2 mm 5 m/s 757 mmHg 95%
03:00 +2°C° 0.3 mm 5 m/s 757 mmHg 96%
04:00 +1°C° 0.3 mm 5 m/s 757 mmHg 96%
05:00 +1°C° 0.3 mm 5 m/s 757 mmHg 96%
06:00 +1°C° 0.2 mm 5 m/s 758 mmHg 96%
07:00 +1°C° 0.2 mm 5 m/s 758 mmHg 96%
08:00 +1°C° 0.2 mm 5 m/s 758 mmHg 95%
09:00 +2°C° 0.1 mm 5 m/s 759 mmHg 92%
10:00 +2°C° 0.1 mm 5 m/s 759 mmHg 89%
11:00 +3°C° 0.1 mm 6 m/s 759 mmHg 86%
12:00 +4°C° 0 mm 6 m/s 759 mmHg 79%
13:00 +6°C° 0 mm 5 m/s 759 mmHg 72%
14:00 +7°C° 0 mm 5 m/s 759 mmHg 65%
15:00 +7°C° 0 mm 5 m/s 759 mmHg 64%
16:00 +8°C° 0 mm 4 m/s 760 mmHg 63%
17:00 +8°C° 0 mm 4 m/s 760 mmHg 61%
18:00 +8°C° 0 mm 3 m/s 760 mmHg 66%
19:00 +7°C° 0 mm 2 m/s 760 mmHg 71%
20:00 +7°C° 0 mm 1 m/s 761 mmHg 75%
21:00 +7°C° 0 mm 1 m/s 761 mmHg 75%
22:00 +6°C° 0 mm 1 m/s 761 mmHg 76%
23:00 +5°C° 0 mm 0 m/s 761 mmHg 76%

17 Avril, Samedi

Heure Température Précipitation Vent Pression Humidité
00:00 +5°C° 0 mm 0 m/s 761 mmHg 77%
01:00 +5°C° 0 mm 0 m/s 761 mmHg 77%
02:00 +5°C° 0 mm 0 m/s 761 mmHg 78%
03:00 +5°C° 0 mm 0 m/s 762 mmHg 79%
04:00 +4°C° 0 mm 0 m/s 762 mmHg 80%
05:00 +4°C° 0 mm 0 m/s 762 mmHg 81%
06:00 +6°C° 0 mm 1 m/s 762 mmHg 76%
07:00 +8°C° 0 mm 1 m/s 762 mmHg 71%
08:00 +8°C° 0 mm 2 m/s 762 mmHg 67%
09:00 +9°C° 0 mm 2 m/s 762 mmHg 62%
10:00 +11°C° 0 mm 3 m/s 762 mmHg 56%
11:00 +12°C° 0 mm 3 m/s 762 mmHg 51%
12:00 +13°C° 0 mm 3 m/s 762 mmHg 48%
13:00 +14°C° 0 mm 3 m/s 761 mmHg 45%
14:00 +16°C° 0 mm 3 m/s 761 mmHg 42%
15:00 +14°C° 0 mm 4 m/s 761 mmHg 46%
16:00 +14°C° 0 mm 5 m/s 761 mmHg 50%
17:00 +13°C° 0 mm 5 m/s 761 mmHg 54%
18:00 +12°C° 0 mm 4 m/s 761 mmHg 59%
19:00 +10°C° 0 mm 4 m/s 761 mmHg 63%
20:00 +9°C° 0 mm 3 m/s 761 mmHg 67%
21:00 +9°C° 0 mm 2 m/s 761 mmHg 69%
22:00 +8°C° 0 mm 2 m/s 761 mmHg 70%
23:00 +9°C° 0 mm 1 m/s 761 mmHg 72%

18 Avril, Dimanche

Heure Température Précipitation Vent Pression Humidité
00:00 +9°C° 0 mm 1 m/s 761 mmHg 72%
01:00 +9°C° 0 mm 1 m/s 761 mmHg 72%
02:00 +9°C° 0 mm 1 m/s 761 mmHg 71%
03:00 +9°C° 0 mm 1 m/s 761 mmHg 72%
04:00 +9°C° 0 mm 1 m/s 761 mmHg 72%
05:00 +9°C° 0 mm 1 m/s 761 mmHg 73%
06:00 +8°C° 0 mm 2 m/s 761 mmHg 71%
07:00 +9°C° 0 mm 2 m/s 761 mmHg 70%
08:00 +10°C° 0 mm 3 m/s 761 mmHg 68%
09:00 +11°C° 0 mm 3 m/s 761 mmHg 64%
10:00 +12°C° 0 mm 4 m/s 761 mmHg 60%
11:00 +13°C° 0 mm 4 m/s 761 mmHg 56%
12:00 +13°C° 0 mm 4 m/s 761 mmHg 54%
13:00 +14°C° 0 mm 4 m/s 761 mmHg 52%
14:00 +14°C° 0 mm 3 m/s 761 mmHg 50%
15:00 +14°C° 0 mm 3 m/s 761 mmHg 53%
16:00 +15°C° 0 mm 2 m/s 760 mmHg 55%
17:00 +15°C° 0 mm 2 m/s 760 mmHg 57%
18:00 +14°C° 0 mm 2 m/s 761 mmHg 63%
19:00 +12°C° 0 mm 2 m/s 761 mmHg 69%
20:00 +10°C° 0 mm 3 m/s 761 mmHg 75%
21:00 +10°C° 0 mm 2 m/s 761 mmHg 76%
22:00 +11°C° 0 mm 1 m/s 761 mmHg 78%
23:00 +11°C° 0 mm 1 m/s 761 mmHg 79%

19 Avril, Lundi

Heure Température Précipitation Vent Pression Humidité
00:00 +11°C° 0.1 mm 1 m/s 761 mmHg 80%
01:00 +11°C° 0.1 mm 1 m/s 761 mmHg 80%
02:00 +10°C° 0.1 mm 0 m/s 761 mmHg 81%
03:00 +10°C° 0.1 mm 1 m/s 761 mmHg 83%
04:00 +10°C° 0.1 mm 1 m/s 761 mmHg 85%
05:00 +9°C° 0.1 mm 2 m/s 760 mmHg 86%
06:00 +9°C° 0.1 mm 2 m/s 760 mmHg 85%
07:00 +9°C° 0.1 mm 3 m/s 760 mmHg 84%
08:00 +9°C° 0.1 mm 3 m/s 760 mmHg 83%
09:00 +10°C° 0.1 mm 4 m/s 760 mmHg 80%
10:00 +10°C° 0.1 mm 4 m/s 760 mmHg 77%
11:00 +10°C° 0.1 mm 4 m/s 760 mmHg 74%
12:00 +10°C° 0 mm 4 m/s 760 mmHg 73%
13:00 +10°C° 0 mm 5 m/s 759 mmHg 71%
14:00 +10°C° 0 mm 5 m/s 759 mmHg 70%
15:00 +11°C° 0 mm 4 m/s 758 mmHg 71%
16:00 +11°C° 0 mm 4 m/s 758 mmHg 73%
17:00 +11°C° 0 mm 4 m/s 757 mmHg 75%
18:00 +10°C° 1.1 mm 4 m/s 757 mmHg 81%
19:00 +10°C° 1.1 mm 4 m/s 756 mmHg 87%
20:00 +8°C° 1.1 mm 4 m/s 756 mmHg 93%
21:00 +8°C° 1.2 mm 5 m/s 755 mmHg 91%
22:00 +8°C° 1.2 mm 6 m/s 755 mmHg 89%
23:00 +8°C° 1.2 mm 7 m/s 754 mmHg 88%
Voir plus

Nous avons besoin de votre consentement

Meteoprog et ses fournisseurs de services peuvent stocker et accéder à des données personnelles telles que des cookies, des identifiants d'appareils ou d'autres technologies similaires sur votre appareil et traiter ces données pour personnaliser le contenu et les publicités, ainsi que pour fournir des fonctionnalités de médias sociaux et analyser le trafic.

  • Stocker et/ou accéder à des informations sur votre appareil

    Des cookies, des identifiants d'appareils ou d'autres informations peuvent être stockés ou accessibles sur votre appareil aux fins indiquées ci-dessus.

  • Annonces et contenus personnalisés, mesure des annonces et des contenus, connaissance de l'audience et développement de produits

    Les annonces et le contenu peuvent être personnalisés en fonction d'un profil. D'autres données peuvent être ajoutées pour mieux personnaliser les annonces et le contenu. Les performances des publicités et du contenu peuvent être mesurées. Il est possible d'obtenir des informations sur le public qui a vu les publicités et le contenu. Ces données peuvent être utilisées pour développer ou améliorer l'expérience de l'utilisateur, les systèmes et les logiciels.

En cliquant sur "J'accepte", vous autorisez l'utilisation de cookies, des identifiants d'appareils, des balises web ou d'autres technologies similaires. Vos paramètres peuvent être modifiés dans le navigateur de votre appareil.

Dans certains cas, des intérêts légitimes peuvent être invoqués plutôt qu'un consentement. Vous pouvez en savoir plus à ce sujet dans notre Politique de confidentialité et de cookies.